Date,TemperatureHighF,TemperatureAvgF,TemperatureLowF,DewpointHighF,DewpointAvgF,DewpointLowF,HumidityHigh,HumidityAvg,HumidityLow,PressureMaxIn,PressureMinIn,WindSpeedMaxMPH,WindSpeedAvgMPH,GustSpeedMaxMPH,PrecipitationSumIn
2013-1-1,28,16,8,16,9,3,88,75,55,30.27,30.15,5,1,14,0.00
2013-1-2,33,27,18,25,19,10,89,73,57,30.33,30.14,15,6,19,0.00
2013-1-3,27,19,8,16,10,2,78,70,50,30.37,30.27,7,2,14,0.00
2013-1-4,34,18,8,20,8,0,80,66,49,30.30,30.11,6,2,14,0.00
2013-1-5,39,26,12,25,16,6,81,65,54,30.32,30.07,15,4,21,0.01
2013-1-6,36,21,8,21,12,1,86,71,54,30.31,29.96,4,0,14,0.00
2013-1-7,45,28,15,24,18,12,87,69,40,30.05,29.84,7,0,14,0.00
2013-1-8,49,32,14,29,21,10,85,68,44,30.22,29.78,13,2,18,0.00
2013-1-9,50,35,21,31,25,16,82,67,46,30.33,30.11,9,2,15,0.00
2013-1-10,40,34,26,35,30,20,97,85,71,30.11,29.43,6,1,14,0.00
2013-1-11,36,26,11,36,23,3,100,90,68,29.87,29.27,17,6,31,0.01
2013-1-12,16,9,0,5,0,-6,75,66,58,30.27,29.87,17,6,23,0.00
2013-1-13,17,6,-4,5,-2,-10,77,70,57,30.42,30.26,7,1,14,0.00
2013-1-14,21,8,-2,12,2,-10,81,73,61,30.49,30.34,6,1,14,0.00
2013-1-15,32,14,-3,23,6,-10,79,69,54,30.35,30.11,13,3,18,0.00
2013-1-16,47,37,32,28,23,18,69,56,45,30.28,30.08,21,8,26,0.00
2013-1-17,51,37,25,25,19,14,73,51,28,30.42,30.11,10,1,17,0.00
2013-1-18,58,38,23,23,17,13,80,48,17,30.10,29.90,13,2,20,0.00
2013-1-19,54,40,25,23,17,14,80,43,21,30.17,29.90,12,4,20,0.00
2013-1-20,38,24,12,24,16,7,84,72,54,30.38,30.09,16,3,21,0.00
2013-1-21,34,21,9,21,13,5,89,73,50,30.34,30.16,4,0,14,0.00
2013-1-22,56,31,16,24,16,10,92,61,16,30.16,30.04,9,1,15,0.00
2013-1-23,42,27,17,20,14,10,72,59,37,30.31,30.07,5,1,14,0.00
2013-1-24,40,25,13,25,16,7,82,70,47,30.31,30.00,10,3,16,0.00
2013-1-25,58,40,20,29,23,13,79,54,32,30.20,30.01,8,2,14,0.00
2013-1-26,62,40,23,31,25,18,85,59,27,30.02,29.70,2,0,14,0.00
2013-1-27,56,42,34,44,37,31,96,84,54,29.70,29.56,6,0,14,0.12
2013-1-28,41,33,28,40,31,26,97,94,91,29.70,29.51,12,2,15,0.01
2013-1-29,31,28,23,27,23,16,91,82,73,29.90,29.64,16,3,23,0.00
2013-1-30,33,23,10,23,13,3,78,66,49,29.96,29.83,17,4,21,0.00
2013-1-31,32,21,14,23,12,4,81,68,60,30.25,29.91,10,3,18,0.00